sat.trackr.live / text

‹ back to catalog

ONEWEB-0054

NORAD 45158 · 2020-008AD

PAYLOAD ACTIVE UNKNOWN

§ Identity

Operator
Country
UK
Launch date
2020-02-06
Launch site
TYMSC
Launch vehicle
Mass (kg)
RCS (m²)

Purposes: comms

External: N2YO · Heavens-Above · Gunter

§ Orbital elements

Epoch: 2026-09-20T03:33:07.962048Z

Period
109.89 min
Inclination
87.8900°
Eccentricity
0.0001719
Mean motion
13.10376852 rev/d
Perigee alt
1,220.4 km
Apogee alt
1,223.0 km
Semi-major
7,599.8 km
B*
1.3012e-3
RAAN
17.3656°
Arg perigee
102.6779°
Mean anomaly
257.4540°
Rev number
32,046

§ Raw data

ONEWEB-00541 45158U 20008AD  26263.14800882  .00000467  00000+0  13012-2 0  99982 45158  87.8900  17.3656 0001719 102.6779 257.4540 13.10376852320463

JSON: /api/v1/satellites/45158 · /tle

For live sub-satellite position, see the globe view (requires WebGL).

§ Visibility from observer

Set your observer location to see the next 7 days of passes ≥ 10°. The values pass through the URL so the page stays shareable.

No JS? Fill the form by hand. The geolocation button needs JavaScript.